Weather History for Springfield, CO

Change the Weather History Date:

Thursday, November 22, 2012

  Actual Average Record
Temperature  
Mean Temperature 47 °F -  
Max Temperature 67 °F 54 °F 82 °F (1998)
Min Temperature 26 °F 24 °F 12 °F (2007)
Degree Days  
Heating Degree Days 18 26  
Month to date heating degree days 347 476  
Since 1 July heating degree days 794 921  
Cooling Degree Days 0 0  
Month to date cooling degree days 0 0  
Year to date cooling degree days 1422 1028  
Moisture  
Dew Point 17 °F    
Average Humidity 35    
Maximum Humidity 55    
Minimum Humidity 14    
Precipitation  
Precipitation 0.00 in 0.02 in 0.64 in (2013)
Month to date precipitation 0.00 0.46  
Year to date precipitation 8.07 16.92  
Sea Level Pressure  
Sea Level Pressure 30.04 in    
Wind  
Wind Speed 13 mph (North)    
Max Wind Speed 23 mph    
Max Gust Speed 28 mph    
T = Trace of Precipitation, MM = Missing Value Source: NWS Daily Summary

Daily Weather History Graph

Daily Weather History Graph

Search for Another Location

Airport:

Trip Planner

Search our weather history database for the weather conditions in past years. The results will help you decide how hot, cold, wet, or windy it might be!

Date:

Astronomy

Nov. 22, 2012 Rise Set
Actual Time 6:37 AM MST 4:35 PM MST
Civil Twilight 6:09 AM MST 5:04 PM MST
Nautical Twilight 5:37 AM MST 5:35 PM MST
Astronomical Twilight 5:06 AM MST 6:07 PM MST
Moon 1:16 PM MST (11/22) 1:05 AM MST (11/22)
Length of Visible Light 10h 54m
Length of Day
9h 58m
Waxing Gibbous, 72% of the Moon is Illuminated
Nov 22
Waxing Gibbous
Nov 28
Full
Dec 6
Last Quarter
Dec 13
New
Dec 19
First Quarter

Hourly Weather History & Observations

Time (MST) Temp. Windchill Dew Point Humidity Pressure Visibility Wind Dir Wind Speed Gust Speed Precip Events Conditions
12:56 AM 41.0 °F 34.7 °F 26.1 °F 55% 29.78 in - WSW 10.4 mph - N/A   Unknown
1:56 AM 44.1 °F 38.1 °F 21.9 °F 42% 29.76 in - West 11.5 mph - N/A   Unknown
2:56 AM 41.0 °F 35.2 °F 12.9 °F 32% 29.77 in - WNW 9.2 mph - N/A   Unknown
3:56 AM 44.1 °F 37.7 °F 12.0 °F 27% 29.79 in - NW 12.7 mph - N/A   Unknown
4:56 AM 42.1 °F 35.2 °F 10.9 °F 28% 29.82 in - NW 12.7 mph - N/A   Unknown
5:56 AM 36.0 °F 28.5 °F 12.0 °F 37% 29.86 in - NW 10.4 mph - N/A   Unknown
6:56 AM 48.0 °F - 10.0 °F 22% 29.87 in - NNW 17.3 mph - N/A   Unknown
7:56 AM 54.0 °F - 10.9 °F 18% 29.90 in - NNW 11.5 mph - N/A   Unknown
8:56 AM 62.1 °F - 12.9 °F 15% 29.92 in - North 11.5 mph - N/A   Unknown
9:56 AM 64.9 °F - 16.0 °F 15% 29.94 in - NNE 13.8 mph - N/A   Unknown
10:56 AM 66.0 °F - 16.0 °F 15% 29.96 in - NE 16.1 mph - N/A   Unknown
11:56 AM 66.0 °F - 18.0 °F 16% 29.96 in - NE 19.6 mph 26.5 mph N/A   Unknown
12:56 PM 64.9 °F - 19.0 °F 17% 29.99 in - NNE 18.4 mph 26.5 mph N/A   Unknown
1:56 PM 61.0 °F - 25.0 °F 25% 30.03 in - NE 19.6 mph - N/A   Unknown
2:56 PM 59.0 °F - 26.1 °F 28% 30.07 in - NE 16.1 mph - N/A   Unknown
3:56 PM 55.9 °F - 27.0 °F 33% 30.11 in - ENE 17.3 mph - N/A   Unknown
4:56 PM 48.0 °F - 26.1 °F 42% 30.17 in - ENE 11.5 mph - N/A   Unknown
5:56 PM 39.0 °F 32.8 °F 24.1 °F 55% 30.27 in - NE 9.2 mph - N/A   Unknown
6:56 PM 41.0 °F 33.9 °F 21.0 °F 45% 30.27 in - ENE 12.7 mph - N/A   Unknown
7:56 PM 36.0 °F 28.0 °F 19.0 °F 50% 30.32 in - NNE 11.5 mph - N/A   Unknown
8:56 PM 36.0 °F 28.0 °F 14.0 °F 41% 30.34 in - NNE 11.5 mph - N/A   Unknown
9:56 PM 32.0 °F 24.8 °F 12.9 °F 45% 30.37 in - North 8.1 mph - N/A   Unknown
10:56 PM 28.9 °F 20.4 °F 12.0 °F 49% 30.39 in - North 9.2 mph - N/A   Unknown
11:56 PM 27.0 °F 19.5 °F 10.9 °F 51% 30.41 in - NNW 6.9 mph - N/A   Unknown